Home > Weather > Plymouth > Past weeks

Flag for United Kingdom Past Weather in Plymouth, England, United Kingdom — Yesterday and Last 2 Weeks

Now
63 °F

Passing clouds.


Feels Like: 63 °F
Forecast: 57 / 69 °F
Wind: 7 mph from South

Location: Exeter Airport

Current Time: Aug 27, 2016 at 9:41:55 PM

Latest Report: Aug 27, 2016 at 9:20 PM


Visibility: 4 mi

Pressure: 29.89 "Hg

Humidity: 94%

Dew Point: 61 °F

Location of PlymouthLocation

Past Weather in Plymouth — Graph

°F

Plymouth Temperature Yesterday

Maximum temperature yesterday: 73 °F (at 6:20 PM)
Minimum temperature yesterday: 54 °F (at 5:50 AM)
Average temperature yesterday: 63 °F

High & Low Weather Summary for the Past Weeks

 TemperatureHumidityPressure
High75 °F (Aug 22, 3:20 PM)100% (Aug 14, 5:50 AM)30.30 "Hg (Aug 14, 5:50 AM)
Low46 °F (Aug 14, 6:20 AM)47% (Aug 15, 1:50 PM)29.59 "Hg (Aug 19, 11:50 AM)
Average63 °F79%30.02 "Hg
* Reported Aug 12 8:20 PM — Aug 27 8:20 PM, Plymouth, Weather by CustomWeather, © 2016

Note: Actual official high and low records may vary slightly from our data, if they occured in-between our weather recording intervals... More about our weather records

Advertising

Plymouth Weather History for the Previous 24 Hours

Scroll right to see more
 ConditionsComfort  
Time TempWeatherWind HumidityBarometerVisibility
8:20 PM
Sat, Aug 27
64 °FPassing clouds.5 mph88%29.86 "Hg4 mi
7:50 PM66 °FClear.6 mph88%29.86 "Hg4 mi
7:20 PM66 °FPassing clouds.3 mph88%29.86 "Hg4 mi
6:50 PM66 °FPassing clouds.7 mph88%29.89 "Hg4 mi
6:20 PM68 °FScattered clouds.7 mph83%29.89 "Hg4 mi
5:50 PM68 °FPartly sunny.7 mph83%29.89 "Hg6 mi
5:20 PM68 °FPartly sunny.7 mph83%29.89 "Hg6 mi
4:50 PM68 °FPartly sunny.7 mph83%29.89 "Hg6 mi
4:20 PM70 °FPartly sunny.10 mph78%29.92 "Hg4 mi
3:50 PM70 °FPartly sunny.13 mph78%29.92 "Hg5 mi
3:20 PM70 °FPartly sunny.13 mph78%29.92 "Hg5 mi
2:50 PM70 °FPartly sunny.12 mph78%29.92 "Hg6 mi
2:20 PM70 °FPartly sunny.12 mph73%29.92 "HgN/A
1:50 PM72 °FPartly sunny.13 mph69%29.95 "HgN/A
1:20 PM72 °FScattered clouds.16 mph65%29.95 "HgN/A
12:50 PM73 °FScattered clouds.10 mph57%29.95 "HgN/A
12:20 PM73 °FPassing clouds.8 mph57%29.95 "HgN/A
11:50 AM70 °FPassing clouds.2 mph69%29.95 "HgN/A
11:20 AM70 °FPassing clouds.6 mph64%29.95 "HgN/A
10:50 AM66 °FPassing clouds.10 mph73%29.98 "HgN/A
10:20 AM66 °FPassing clouds.8 mph68%29.98 "HgN/A
9:50 AM64 °FPassing clouds.7 mph73%30.01 "HgN/A
9:20 AM63 °FPassing clouds.6 mph77%30.01 "HgN/A
8:50 AM61 °FPassing clouds.5 mph83%30.01 "HgN/A
8:20 AM59 °FSunny.3 mph88%30.01 "Hg10 mi
7:50 AM57 °FSunny.3 mph88%30.04 "Hg10 mi
7:20 AM55 °FSprinkles. Clear.5 mph94%30.04 "HgN/A
6:50 AM55 °FClear.3 mph94%30.04 "Hg10 mi
6:20 AM54 °FClear.3 mph94%30.04 "Hg10 mi
5:50 AM54 °FClear.2 mph94%30.04 "Hg10 mi
2:50 AM52 °FClear.2 mph100%30.07 "Hg10 mi
2:20 AM52 °FClear.2 mph100%30.09 "Hg10 mi
1:50 AM52 °FClear.3 mph94%30.09 "Hg10 mi
1:20 AM54 °FClear.2 mph94%30.09 "Hg10 mi
12:50 AM54 °FClear.2 mph94%30.09 "Hg10 mi
12:20 AM55 °FClear.1 mph94%30.09 "Hg10 mi
11:50 PM
Fri, Aug 26
57 °FClear.2 mph88%30.12 "Hg10 mi
11:20 PM57 °FClear.1 mph88%30.12 "Hg10 mi
10:50 PM57 °FPassing clouds.3 mph88%30.12 "HgN/A
10:20 PM59 °FPassing clouds.3 mph88%30.12 "HgN/A
9:50 PM59 °FPassing clouds.3 mph88%30.12 "HgN/A
9:20 PM61 °FPassing clouds.6 mph83%30.12 "HgN/A
Weather by CustomWeather, © 2016

See weather overviewHow to use our weather pages